Year,Month,Day,Hour,Minute,Value (Times are PST for insolation in W/m^2)
2013,06,22,00,00,0.00
2013,06,22,00,01,0.00
2013,06,22,00,02,0.00
2013,06,22,00,03,0.00
2013,06,22,00,04,0.00
2013,06,22,00,05,0.00
2013,06,22,00,06,0.00
2013,06,22,00,07,0.00
2013,06,22,00,08,0.00
2013,06,22,00,09,0.00
2013,06,22,00,10,0.00
2013,06,22,00,11,0.00
2013,06,22,00,12,0.00
2013,06,22,00,13,0.00
2013,06,22,00,14,0.00
2013,06,22,00,15,0.00
2013,06,22,00,16,0.00
2013,06,22,00,17,0.00
2013,06,22,00,18,0.00
2013,06,22,00,19,0.00
2013,06,22,00,20,0.00
2013,06,22,00,21,0.00
2013,06,22,00,22,0.00
2013,06,22,00,23,0.00
2013,06,22,00,24,0.00
2013,06,22,00,25,0.00
2013,06,22,00,26,0.00
2013,06,22,00,27,0.00
2013,06,22,00,28,0.00
2013,06,22,00,29,0.00
2013,06,22,00,30,0.00
2013,06,22,00,31,0.00
2013,06,22,00,32,0.00
2013,06,22,00,33,0.00
2013,06,22,00,34,0.00
2013,06,22,00,35,0.00
2013,06,22,00,36,0.00
2013,06,22,00,37,0.00
2013,06,22,00,38,0.00
2013,06,22,00,39,0.00
2013,06,22,00,40,0.00
2013,06,22,00,41,0.00
2013,06,22,00,42,0.00
2013,06,22,00,43,0.00
2013,06,22,00,44,0.00
2013,06,22,00,45,0.00
2013,06,22,00,46,0.00
2013,06,22,00,47,0.00
2013,06,22,00,48,0.00
2013,06,22,00,49,0.00
2013,06,22,00,50,0.00
2013,06,22,00,51,0.00
2013,06,22,00,52,0.00
2013,06,22,00,53,0.00
2013,06,22,00,54,0.00
2013,06,22,00,55,0.00
2013,06,22,00,56,0.00
2013,06,22,00,57,0.00
2013,06,22,00,58,0.00
2013,06,22,00,59,0.00
2013,06,22,01,00,0.00
2013,06,22,01,01,0.00
2013,06,22,01,02,0.00
2013,06,22,01,03,0.00
2013,06,22,01,04,0.00
2013,06,22,01,05,0.00
2013,06,22,01,06,0.00
2013,06,22,01,07,0.00
2013,06,22,01,08,0.00
2013,06,22,01,09,0.00
2013,06,22,01,10,0.00
2013,06,22,01,11,0.00
2013,06,22,01,12,0.00
2013,06,22,01,13,0.00
2013,06,22,01,14,0.00
2013,06,22,01,15,0.00
2013,06,22,01,16,0.00
2013,06,22,01,17,0.00
2013,06,22,01,18,0.00
2013,06,22,01,19,0.00
2013,06,22,01,20,0.00
2013,06,22,01,21,0.00
2013,06,22,01,22,0.00
2013,06,22,01,23,0.00
2013,06,22,01,24,0.00
2013,06,22,01,25,0.00
2013,06,22,01,26,0.00
2013,06,22,01,27,0.00
2013,06,22,01,28,0.00
2013,06,22,01,29,0.00
2013,06,22,01,30,0.00
2013,06,22,01,31,0.00
2013,06,22,01,32,0.00
2013,06,22,01,33,0.00
2013,06,22,01,34,0.00
2013,06,22,01,35,0.00
2013,06,22,01,36,0.00
2013,06,22,01,37,0.00
2013,06,22,01,38,0.00
2013,06,22,01,39,0.00
2013,06,22,01,40,0.00
2013,06,22,01,41,0.00
2013,06,22,01,42,0.00
2013,06,22,01,43,0.00
2013,06,22,01,44,0.00
2013,06,22,01,45,0.00
2013,06,22,01,46,0.00
2013,06,22,01,47,0.00
2013,06,22,01,48,0.00
2013,06,22,01,49,0.00
2013,06,22,01,50,0.00
2013,06,22,01,51,0.00
2013,06,22,01,52,0.00
2013,06,22,01,53,0.00
2013,06,22,01,54,0.00
2013,06,22,01,55,0.00
2013,06,22,01,56,0.00
2013,06,22,01,57,0.00
2013,06,22,01,58,0.00
2013,06,22,01,59,0.00
2013,06,22,02,00,0.00
2013,06,22,02,01,0.00
2013,06,22,02,02,0.00
2013,06,22,02,03,0.00
2013,06,22,02,04,0.00
2013,06,22,02,05,0.00
2013,06,22,02,06,0.00
2013,06,22,02,07,0.00
2013,06,22,02,08,0.00
2013,06,22,02,09,0.00
2013,06,22,02,10,0.00
2013,06,22,02,11,0.00
2013,06,22,02,12,0.00
2013,06,22,02,13,0.00
2013,06,22,02,14,0.00
2013,06,22,02,15,0.00
2013,06,22,02,16,0.00
2013,06,22,02,17,0.00
2013,06,22,02,18,0.00
2013,06,22,02,19,0.00
2013,06,22,02,20,0.00
2013,06,22,02,21,0.00
2013,06,22,02,22,0.00
2013,06,22,02,23,0.00
2013,06,22,02,24,0.00
2013,06,22,02,25,0.00
2013,06,22,02,26,0.00
2013,06,22,02,27,0.00
2013,06,22,02,28,0.00
2013,06,22,02,29,0.00
2013,06,22,02,30,0.00
2013,06,22,02,31,0.00
2013,06,22,02,32,0.00
2013,06,22,02,33,0.00
2013,06,22,02,34,0.00
2013,06,22,02,35,0.00
2013,06,22,02,36,0.00
2013,06,22,02,37,0.00
2013,06,22,02,38,0.00
2013,06,22,02,39,0.00
2013,06,22,02,40,0.00
2013,06,22,02,41,0.00
2013,06,22,02,42,0.00
2013,06,22,02,43,0.00
2013,06,22,02,44,0.00
2013,06,22,02,45,0.00
2013,06,22,02,46,0.00
2013,06,22,02,47,0.00
2013,06,22,02,48,0.00
2013,06,22,02,49,0.00
2013,06,22,02,50,0.00
2013,06,22,02,51,0.00
2013,06,22,02,52,0.00
2013,06,22,02,53,0.00
2013,06,22,02,54,0.00
2013,06,22,02,55,0.00
2013,06,22,02,56,0.00
2013,06,22,02,57,0.00
2013,06,22,02,58,0.00
2013,06,22,02,59,0.00
2013,06,22,03,00,0.00
2013,06,22,03,01,0.00
2013,06,22,03,02,0.00
2013,06,22,03,03,0.00
2013,06,22,03,04,0.00
2013,06,22,03,05,0.00
2013,06,22,03,06,0.00
2013,06,22,03,07,0.00
2013,06,22,03,08,0.00
2013,06,22,03,09,0.00
2013,06,22,03,10,0.00
2013,06,22,03,11,0.00
2013,06,22,03,12,0.00
2013,06,22,03,13,0.00
2013,06,22,03,14,0.00
2013,06,22,03,15,0.00
2013,06,22,03,16,0.00
2013,06,22,03,17,0.00
2013,06,22,03,18,0.00
2013,06,22,03,19,0.00
2013,06,22,03,20,0.00
2013,06,22,03,21,0.00
2013,06,22,03,22,0.00
2013,06,22,03,23,0.00
2013,06,22,03,24,0.00
2013,06,22,03,25,0.00
2013,06,22,03,26,0.00
2013,06,22,03,27,0.00
2013,06,22,03,28,0.00
2013,06,22,03,29,0.00
2013,06,22,03,30,0.00
2013,06,22,03,31,0.00
2013,06,22,03,32,0.00
2013,06,22,03,33,0.00
2013,06,22,03,34,0.00
2013,06,22,03,35,0.00
2013,06,22,03,36,0.00
2013,06,22,03,37,0.00
2013,06,22,03,38,0.00
2013,06,22,03,39,0.00
2013,06,22,03,40,0.00
2013,06,22,03,41,0.00
2013,06,22,03,42,0.00
2013,06,22,03,43,0.00
2013,06,22,03,44,0.00
2013,06,22,03,45,0.00
2013,06,22,03,46,0.00
2013,06,22,03,47,0.00
2013,06,22,03,48,0.00
2013,06,22,03,49,0.00
2013,06,22,03,50,0.00
2013,06,22,03,51,0.00
2013,06,22,03,52,0.00
2013,06,22,03,53,0.00
2013,06,22,03,54,0.00
2013,06,22,03,55,0.00
2013,06,22,03,56,0.00
2013,06,22,03,57,0.00
2013,06,22,03,58,0.00
2013,06,22,03,59,0.00
2013,06,22,04,00,0.00
2013,06,22,04,01,0.00
2013,06,22,04,02,0.00
2013,06,22,04,03,0.00
2013,06,22,04,04,0.00
2013,06,22,04,05,0.00
2013,06,22,04,06,0.00
2013,06,22,04,07,0.00
2013,06,22,04,08,0.00
2013,06,22,04,09,0.00
2013,06,22,04,10,0.00
2013,06,22,04,11,0.00
2013,06,22,04,12,0.00
2013,06,22,04,13,0.00
2013,06,22,04,14,0.00
2013,06,22,04,15,0.00
2013,06,22,04,16,0.00
2013,06,22,04,17,0.00
2013,06,22,04,18,0.00
2013,06,22,04,19,0.00
2013,06,22,04,20,0.00
2013,06,22,04,21,0.00
2013,06,22,04,22,0.00
2013,06,22,04,23,0.00
2013,06,22,04,24,0.00
2013,06,22,04,25,0.00
2013,06,22,04,26,0.00
2013,06,22,04,27,0.00
2013,06,22,04,28,0.00
2013,06,22,04,29,0.00
2013,06,22,04,30,0.00
2013,06,22,04,31,0.00
2013,06,22,04,32,0.00
2013,06,22,04,33,0.00
2013,06,22,04,34,0.00
2013,06,22,04,35,0.00
2013,06,22,04,36,0.00
2013,06,22,04,37,0.00
2013,06,22,04,38,0.00
2013,06,22,04,39,0.00
2013,06,22,04,40,0.00
2013,06,22,04,41,0.00
2013,06,22,04,42,0.00
2013,06,22,04,43,0.00
2013,06,22,04,44,0.00
2013,06,22,04,45,0.00
2013,06,22,04,46,0.00
2013,06,22,04,47,0.00
2013,06,22,04,48,0.00
2013,06,22,04,49,0.00
2013,06,22,04,50,0.00
2013,06,22,04,51,0.00
2013,06,22,04,52,0.00
2013,06,22,04,53,0.00
2013,06,22,04,54,0.00
2013,06,22,04,55,0.00
2013,06,22,04,56,0.00
2013,06,22,04,57,0.00
2013,06,22,04,58,0.00
2013,06,22,04,59,0.00
2013,06,22,05,00,0.00
2013,06,22,05,01,0.00
2013,06,22,05,02,0.00
2013,06,22,05,03,0.00
2013,06,22,05,04,0.00
2013,06,22,05,05,0.00
2013,06,22,05,06,0.00
2013,06,22,05,07,0.00
2013,06,22,05,08,0.00
2013,06,22,05,09,0.00
2013,06,22,05,10,0.00
2013,06,22,05,11,0.00
2013,06,22,05,12,0.00
2013,06,22,05,13,0.00
2013,06,22,05,14,0.00
2013,06,22,05,15,0.00
2013,06,22,05,16,0.00
2013,06,22,05,17,0.00
2013,06,22,05,18,0.00
2013,06,22,05,19,0.00
2013,06,22,05,20,0.00
2013,06,22,05,21,0.00
2013,06,22,05,22,0.00
2013,06,22,05,23,0.00
2013,06,22,05,24,0.00
2013,06,22,05,25,0.00
2013,06,22,05,26,0.00
2013,06,22,05,27,0.00
2013,06,22,05,28,0.00
2013,06,22,05,29,0.00
2013,06,22,05,30,4.50
2013,06,22,05,31,5.00
2013,06,22,05,32,5.00
2013,06,22,05,33,5.00
2013,06,22,05,34,5.00
2013,06,22,05,35,5.00
2013,06,22,05,36,5.00
2013,06,22,05,37,5.00
2013,06,22,05,38,5.30
2013,06,22,05,39,7.00
2013,06,22,05,40,7.00
2013,06,22,05,41,8.10
2013,06,22,05,42,10.30
2013,06,22,05,43,11.80
2013,06,22,05,44,12.10
2013,06,22,05,45,14.00
2013,06,22,05,46,14.00
2013,06,22,05,47,14.00
2013,06,22,05,48,14.00
2013,06,22,05,49,15.40
2013,06,22,05,50,16.00
2013,06,22,05,51,16.00
2013,06,22,05,52,16.00
2013,06,22,05,53,16.60
2013,06,22,05,54,18.00
2013,06,22,05,55,18.00
2013,06,22,05,56,18.70
2013,06,22,05,57,19.00
2013,06,22,05,58,19.10
2013,06,22,05,59,21.00
2013,06,22,06,00,21.00
2013,06,22,06,01,21.80
2013,06,22,06,02,23.00
2013,06,22,06,03,23.00
2013,06,22,06,04,23.00
2013,06,22,06,05,24.90
2013,06,22,06,06,25.00
2013,06,22,06,07,25.00
2013,06,22,06,08,25.00
2013,06,22,06,09,25.50
2013,06,22,06,10,26.00
2013,06,22,06,11,26.00
2013,06,22,06,12,27.80
2013,06,22,06,13,28.00
2013,06,22,06,14,28.00
2013,06,22,06,15,28.80
2013,06,22,06,16,30.00
2013,06,22,06,17,30.00
2013,06,22,06,18,31.50
2013,06,22,06,19,32.00
2013,06,22,06,20,33.30
2013,06,22,06,21,35.60
2013,06,22,06,22,37.80
2013,06,22,06,23,39.60
2013,06,22,06,24,41.40
2013,06,22,06,25,43.60
2013,06,22,06,26,45.80
2013,06,22,06,27,47.70
2013,06,22,06,28,51.60
2013,06,22,06,29,53.40
2013,06,22,06,30,56.10
2013,06,22,06,31,59.30
2013,06,22,06,32,61.60
2013,06,22,06,33,62.00
2013,06,22,06,34,63.00
2013,06,22,06,35,63.60
2013,06,22,06,36,65.00
2013,06,22,06,37,65.00
2013,06,22,06,38,65.00
2013,06,22,06,39,66.60
2013,06,22,06,40,67.00
2013,06,22,06,41,67.00
2013,06,22,06,42,67.60
2013,06,22,06,43,69.00
2013,06,22,06,44,69.50
2013,06,22,06,45,70.00
2013,06,22,06,46,70.00
2013,06,22,06,47,70.00
2013,06,22,06,48,70.00
2013,06,22,06,49,70.00
2013,06,22,06,50,70.00
2013,06,22,06,51,69.40
2013,06,22,06,52,69.00
2013,06,22,06,53,69.80
2013,06,22,06,54,70.00
2013,06,22,06,55,70.30
2013,06,22,06,56,72.00
2013,06,22,06,57,72.80
2013,06,22,06,58,75.10
2013,06,22,06,59,76.00
2013,06,22,07,00,76.80
2013,06,22,07,01,77.00
2013,06,22,07,02,77.30
2013,06,22,07,03,79.60
2013,06,22,07,04,81.00
2013,06,22,07,05,82.10
2013,06,22,07,06,83.70
2013,06,22,07,07,85.60
2013,06,22,07,08,86.10
2013,06,22,07,09,88.30
2013,06,22,07,10,90.30
2013,06,22,07,11,91.00
2013,06,22,07,12,92.10
2013,06,22,07,13,94.30
2013,06,22,07,14,95.00
2013,06,22,07,15,96.80
2013,06,22,07,16,97.20
2013,06,22,07,17,98.00
2013,06,22,07,18,98.80
2013,06,22,07,19,101.10
2013,06,22,07,20,102.00
2013,06,22,07,21,103.60
2013,06,22,07,22,104.00
2013,06,22,07,23,105.00
2013,06,22,07,24,105.60
2013,06,22,07,25,107.00
2013,06,22,07,26,108.10
2013,06,22,07,27,109.00
2013,06,22,07,28,110.60
2013,06,22,07,29,112.90
2013,06,22,07,30,113.20
2013,06,22,07,31,114.60
2013,06,22,07,32,116.90
2013,06,22,07,33,118.00
2013,06,22,07,34,119.30
2013,06,22,07,35,120.00
2013,06,22,07,36,120.00
2013,06,22,07,37,121.00
2013,06,22,07,38,121.60
2013,06,22,07,39,123.00
2013,06,22,07,40,123.00
2013,06,22,07,41,123.00
2013,06,22,07,42,121.40
2013,06,22,07,43,119.80
2013,06,22,07,44,115.60
2013,06,22,07,45,114.00
2013,06,22,07,46,114.00
2013,06,22,07,47,114.00
2013,06,22,07,48,115.40
2013,06,22,07,49,117.60
2013,06,22,07,50,119.90
2013,06,22,07,51,121.40
2013,06,22,07,52,123.60
2013,06,22,07,53,126.20
2013,06,22,07,54,130.10
2013,06,22,07,55,133.30
2013,06,22,07,56,134.80
2013,06,22,07,57,135.00
2013,06,22,07,58,134.80
2013,06,22,07,59,134.00
2013,06,22,08,00,133.20
2013,06,22,08,01,132.00
2013,06,22,08,02,133.30
2013,06,22,08,03,134.80
2013,06,22,08,04,136.90
2013,06,22,08,05,139.00
2013,06,22,08,06,139.60
2013,06,22,08,07,141.40
2013,06,22,08,08,143.10
2013,06,22,08,09,145.40
2013,06,22,08,10,146.00
2013,06,22,08,11,147.90
2013,06,22,08,12,148.20
2013,06,22,08,13,149.00
2013,06,22,08,14,149.00
2013,06,22,08,15,151.10
2013,06,22,08,16,153.00
2013,06,22,08,17,154.60
2013,06,22,08,18,157.90
2013,06,22,08,19,160.50
2013,06,22,08,20,164.20
2013,06,22,08,21,167.90
2013,06,22,08,22,170.60
2013,06,22,08,23,174.60
2013,06,22,08,24,177.60
2013,06,22,08,25,178.90
2013,06,22,08,26,179.30
2013,06,22,08,27,181.00
2013,06,22,08,28,181.80
2013,06,22,08,29,184.70
2013,06,22,08,30,188.70
2013,06,22,08,31,190.00
2013,06,22,08,32,192.80
2013,06,22,08,33,193.00
2013,06,22,08,34,192.10
2013,06,22,08,35,189.20
2013,06,22,08,36,190.80
2013,06,22,08,37,195.70
2013,06,22,08,38,199.40
2013,06,22,08,39,203.80
2013,06,22,08,40,206.20
2013,06,22,08,41,207.60
2013,06,22,08,42,209.90
2013,06,22,08,43,211.00
2013,06,22,08,44,209.70
2013,06,22,08,45,207.40
2013,06,22,08,46,206.00
2013,06,22,08,47,204.00
2013,06,22,08,48,204.00
2013,06,22,08,49,203.20
2013,06,22,08,50,203.10
2013,06,22,08,51,204.00
2013,06,22,08,52,208.00
2013,06,22,08,53,210.90
2013,06,22,08,54,213.00
2013,06,22,08,55,213.00
2013,06,22,08,56,212.10
2013,06,22,08,57,208.80
2013,06,22,08,58,203.60
2013,06,22,08,59,196.40
2013,06,22,09,00,186.40
2013,06,22,09,01,177.00
2013,06,22,09,02,172.00
2013,06,22,09,03,174.60
2013,06,22,09,04,180.80
2013,06,22,09,05,186.40
2013,06,22,09,06,191.20
2013,06,22,09,07,196.90
2013,06,22,09,08,200.40
2013,06,22,09,09,202.60
2013,06,22,09,10,204.80
2013,06,22,09,11,206.50
2013,06,22,09,12,208.30
2013,06,22,09,13,210.60
2013,06,22,09,14,210.90
2013,06,22,09,15,208.70
2013,06,22,09,16,206.10
2013,06,22,09,17,202.30
2013,06,22,09,18,200.00
2013,06,22,09,19,201.30
2013,06,22,09,20,200.40
2013,06,22,09,21,197.00
2013,06,22,09,22,191.70
2013,06,22,09,23,191.60
2013,06,22,09,24,196.70
2013,06,22,09,25,199.60
2013,06,22,09,26,199.30
2013,06,22,09,27,199.80
2013,06,22,09,28,205.70
2013,06,22,09,29,206.80
2013,06,22,09,30,207.60
2013,06,22,09,31,212.30
2013,06,22,09,32,217.30
2013,06,22,09,33,222.00
2013,06,22,09,34,223.00
2013,06,22,09,35,222.90
2013,06,22,09,36,221.30
2013,06,22,09,37,222.40
2013,06,22,09,38,220.60
2013,06,22,09,39,220.00
2013,06,22,09,40,220.70
2013,06,22,09,41,225.70
2013,06,22,09,42,227.10
2013,06,22,09,43,228.70
2013,06,22,09,44,225.90
2013,06,22,09,45,223.80
2013,06,22,09,46,225.00
2013,06,22,09,47,226.30
2013,06,22,09,48,222.20
2013,06,22,09,49,218.40
2013,06,22,09,50,223.70
2013,06,22,09,51,227.90
2013,06,22,09,52,229.60
2013,06,22,09,53,229.60
2013,06,22,09,54,232.70
2013,06,22,09,55,238.00
2013,06,22,09,56,242.70
2013,06,22,09,57,242.60
2013,06,22,09,58,241.00
2013,06,22,09,59,241.90
2013,06,22,10,00,244.70
2013,06,22,10,01,248.70
2013,06,22,10,02,252.40
2013,06,22,10,03,253.10
2013,06,22,10,04,256.80
2013,06,22,10,05,268.40
2013,06,22,10,06,279.10
2013,06,22,10,07,284.10
2013,06,22,10,08,286.40
2013,06,22,10,09,283.70
2013,06,22,10,10,279.40
2013,06,22,10,11,282.20
2013,06,22,10,12,288.60
2013,06,22,10,13,288.70
2013,06,22,10,14,285.90
2013,06,22,10,15,282.20
2013,06,22,10,16,282.60
2013,06,22,10,17,291.60
2013,06,22,10,18,294.80
2013,06,22,10,19,294.30
2013,06,22,10,20,293.70
2013,06,22,10,21,285.70
2013,06,22,10,22,282.40
2013,06,22,10,23,290.40
2013,06,22,10,24,298.70
2013,06,22,10,25,302.00
2013,06,22,10,26,300.60
2013,06,22,10,27,296.20
2013,06,22,10,28,295.00
2013,06,22,10,29,295.00
2013,06,22,10,30,298.20
2013,06,22,10,31,305.60
2013,06,22,10,32,309.30
2013,06,22,10,33,311.00
2013,06,22,10,34,312.70
2013,06,22,10,35,315.60
2013,06,22,10,36,318.70
2013,06,22,10,37,324.00
2013,06,22,10,38,325.10
2013,06,22,10,39,327.50
2013,06,22,10,40,331.20
2013,06,22,10,41,334.90
2013,06,22,10,42,337.70
2013,06,22,10,43,341.70
2013,06,22,10,44,344.60
2013,06,22,10,45,349.90
2013,06,22,10,46,354.10
2013,06,22,10,47,360.60
2013,06,22,10,48,365.30
2013,06,22,10,49,369.20
2013,06,22,10,50,374.40
2013,06,22,10,51,379.30
2013,06,22,10,52,384.80
2013,06,22,10,53,387.20
2013,06,22,10,54,388.60
2013,06,22,10,55,390.90
2013,06,22,10,56,394.30
2013,06,22,10,57,396.00
2013,06,22,10,58,394.40
2013,06,22,10,59,392.10
2013,06,22,11,00,391.60
2013,06,22,11,01,390.60
2013,06,22,11,02,392.90
2013,06,22,11,03,392.90
2013,06,22,11,04,392.00
2013,06,22,11,05,393.60
2013,06,22,11,06,393.70
2013,06,22,11,07,389.70
2013,06,22,11,08,387.70
2013,06,22,11,09,387.00
2013,06,22,11,10,387.50
2013,06,22,11,11,391.90
2013,06,22,11,12,395.60
2013,06,22,11,13,396.90
2013,06,22,11,14,396.00
2013,06,22,11,15,395.40
2013,06,22,11,16,392.30
2013,06,22,11,17,388.40
2013,06,22,11,18,384.40
2013,06,22,11,19,379.00
2013,06,22,11,20,374.00
2013,06,22,11,21,366.10
2013,06,22,11,22,360.60
2013,06,22,11,23,355.30
2013,06,22,11,24,351.40
2013,06,22,11,25,350.00
2013,06,22,11,26,351.60
2013,06,22,11,27,353.10
2013,06,22,11,28,357.00
2013,06,22,11,29,357.00
2013,06,22,11,30,357.90
2013,06,22,11,31,357.90
2013,06,22,11,32,355.60
2013,06,22,11,33,355.00
2013,06,22,11,34,353.10
2013,06,22,11,35,353.00
2013,06,22,11,36,353.00
2013,06,22,11,37,352.60
2013,06,22,11,38,352.00
2013,06,22,11,39,349.20
2013,06,22,11,40,345.50
2013,06,22,11,41,343.00
2013,06,22,11,42,340.60
2013,06,22,11,43,339.00
2013,06,22,11,44,339.90
2013,06,22,11,45,341.00
2013,06,22,11,46,342.40
2013,06,22,11,47,343.00
2013,06,22,11,48,343.10
2013,06,22,11,49,345.20
2013,06,22,11,50,346.60
2013,06,22,11,51,348.90
2013,06,22,11,52,351.10
2013,06,22,11,53,352.70
2013,06,22,11,54,354.60
2013,06,22,11,55,357.00
2013,06,22,11,56,360.00
2013,06,22,11,57,364.60
2013,06,22,11,58,367.30
2013,06,22,11,59,371.90
2013,06,22,12,00,374.00
2013,06,22,12,01,378.90
2013,06,22,12,02,383.10
2013,06,22,12,03,387.60
2013,06,22,12,04,391.90
2013,06,22,12,05,397.30
2013,06,22,12,06,401.90
2013,06,22,12,07,408.80
2013,06,22,12,08,416.80
2013,06,22,12,09,424.10
2013,06,22,12,10,432.40
2013,06,22,12,11,440.20
2013,06,22,12,12,447.20
2013,06,22,12,13,452.90
2013,06,22,12,14,459.80
2013,06,22,12,15,466.90
2013,06,22,12,16,475.80
2013,06,22,12,17,486.60
2013,06,22,12,18,495.60
2013,06,22,12,19,499.90
2013,06,22,12,20,502.10
2013,06,22,12,21,503.70
2013,06,22,12,22,501.60
2013,06,22,12,23,500.70
2013,06,22,12,24,496.80
2013,06,22,12,25,494.90
2013,06,22,12,26,492.00
2013,06,22,12,27,490.30
2013,06,22,12,28,489.00
2013,06,22,12,29,487.40
2013,06,22,12,30,489.10
2013,06,22,12,31,492.70
2013,06,22,12,32,497.60
2013,06,22,12,33,503.10
2013,06,22,12,34,509.30
2013,06,22,12,35,514.10
2013,06,22,12,36,518.30
2013,06,22,12,37,522.10
2013,06,22,12,38,526.90
2013,06,22,12,39,531.00
2013,06,22,12,40,529.30
2013,06,22,12,41,527.00
2013,06,22,12,42,524.90
2013,06,22,12,43,519.90
2013,06,22,12,44,512.90
2013,06,22,12,45,505.50
2013,06,22,12,46,501.10
2013,06,22,12,47,495.70
2013,06,22,12,48,491.70
2013,06,22,12,49,487.90
2013,06,22,12,50,487.00
2013,06,22,12,51,489.00
2013,06,22,12,52,491.20
2013,06,22,12,53,496.30
2013,06,22,12,54,498.70
2013,06,22,12,55,498.20
2013,06,22,12,56,493.30
2013,06,22,12,57,489.60
2013,06,22,12,58,486.90
2013,06,22,12,59,483.00
2013,06,22,13,00,482.70
2013,06,22,13,01,481.10
2013,06,22,13,02,478.90
2013,06,22,13,03,476.00
2013,06,22,13,04,470.20
2013,06,22,13,05,463.90
2013,06,22,13,06,456.10
2013,06,22,13,07,450.80
2013,06,22,13,08,446.70
2013,06,22,13,09,445.00
2013,06,22,13,10,445.70
2013,06,22,13,11,446.00
2013,06,22,13,12,447.70
2013,06,22,13,13,445.10
2013,06,22,13,14,440.40
2013,06,22,13,15,437.70
2013,06,22,13,16,434.90
2013,06,22,13,17,432.60
2013,06,22,13,18,431.20
2013,06,22,13,19,428.80
2013,06,22,13,20,423.60
2013,06,22,13,21,420.40
2013,06,22,13,22,415.30
2013,06,22,13,23,411.30
2013,06,22,13,24,407.30
2013,06,22,13,25,403.60
2013,06,22,13,26,401.00
2013,06,22,13,27,398.60
2013,06,22,13,28,396.70
2013,06,22,13,29,395.10
2013,06,22,13,30,391.80
2013,06,22,13,31,388.00
2013,06,22,13,32,383.80
2013,06,22,13,33,380.10
2013,06,22,13,34,378.00
2013,06,22,13,35,377.40
2013,06,22,13,36,376.00
2013,06,22,13,37,378.30
2013,06,22,13,38,382.10
2013,06,22,13,39,386.30
2013,06,22,13,40,390.20
2013,06,22,13,41,394.60
2013,06,22,13,42,397.60
2013,06,22,13,43,400.80
2013,06,22,13,44,403.60
2013,06,22,13,45,404.00
2013,06,22,13,46,405.70
2013,06,22,13,47,404.10
2013,06,22,13,48,403.80
2013,06,22,13,49,403.00
2013,06,22,13,50,402.10
2013,06,22,13,51,402.10
2013,06,22,13,52,403.70
2013,06,22,13,53,405.70
2013,06,22,13,54,410.10
2013,06,22,13,55,413.80
2013,06,22,13,56,417.30
2013,06,22,13,57,418.00
2013,06,22,13,58,419.10
2013,06,22,13,59,418.60
2013,06,22,14,00,417.20
2013,06,22,14,01,417.90
2013,06,22,14,02,417.00
2013,06,22,14,03,417.00
2013,06,22,14,04,416.10
2013,06,22,14,05,413.90
2013,06,22,14,06,413.00
2013,06,22,14,07,410.50
2013,06,22,14,08,405.90
2013,06,22,14,09,401.80
2013,06,22,14,10,396.00
2013,06,22,14,11,392.20
2013,06,22,14,12,390.00
2013,06,22,14,13,390.00
2013,06,22,14,14,390.00
2013,06,22,14,15,393.70
2013,06,22,14,16,394.30
2013,06,22,14,17,396.00
2013,06,22,14,18,396.00
2013,06,22,14,19,396.00
2013,06,22,14,20,394.60
2013,06,22,14,21,392.30
2013,06,22,14,22,393.90
2013,06,22,14,23,394.00
2013,06,22,14,24,394.60
2013,06,22,14,25,396.00
2013,06,22,14,26,396.00
2013,06,22,14,27,396.00
2013,06,22,14,28,396.00
2013,06,22,14,29,394.00
2013,06,22,14,30,389.70
2013,06,22,14,31,387.10
2013,06,22,14,32,385.00
2013,06,22,14,33,383.90
2013,06,22,14,34,383.00
2013,06,22,14,35,381.40
2013,06,22,14,36,380.10
2013,06,22,14,37,380.00
2013,06,22,14,38,379.40
2013,06,22,14,39,378.00
2013,06,22,14,40,378.00
2013,06,22,14,41,378.00
2013,06,22,14,42,378.00
2013,06,22,14,43,376.00
2013,06,22,14,44,370.10
2013,06,22,14,45,364.80
2013,06,22,14,46,360.70
2013,06,22,14,47,356.80
2013,06,22,14,48,355.00
2013,06,22,14,49,355.00
2013,06,22,14,50,357.00
2013,06,22,14,51,360.70
2013,06,22,14,52,364.60
2013,06,22,14,53,367.30
2013,06,22,14,54,370.10
2013,06,22,14,55,371.00
2013,06,22,14,56,369.40
2013,06,22,14,57,366.90
2013,06,22,14,58,363.30
2013,06,22,14,59,359.70
2013,06,22,15,00,357.30
2013,06,22,15,01,353.80
2013,06,22,15,02,352.30
2013,06,22,15,03,352.00
2013,06,22,15,04,352.00
2013,06,22,15,05,352.20
2013,06,22,15,06,353.00
2013,06,22,15,07,353.00
2013,06,22,15,08,354.10
2013,06,22,15,09,355.00
2013,06,22,15,10,355.00
2013,06,22,15,11,353.10
2013,06,22,15,12,353.00
2013,06,22,15,13,353.00
2013,06,22,15,14,353.00
2013,06,22,15,15,353.00
2013,06,22,15,16,353.00
2013,06,22,15,17,352.20
2013,06,22,15,18,351.90
2013,06,22,15,19,349.60
2013,06,22,15,20,347.40
2013,06,22,15,21,344.70
2013,06,22,15,22,343.00
2013,06,22,15,23,340.20
2013,06,22,15,24,336.50
2013,06,22,15,25,332.10
2013,06,22,15,26,329.50
2013,06,22,15,27,326.40
2013,06,22,15,28,324.10
2013,06,22,15,29,323.00
2013,06,22,15,30,323.00
2013,06,22,15,31,324.60
2013,06,22,15,32,325.00
2013,06,22,15,33,325.00
2013,06,22,15,34,324.40
2013,06,22,15,35,322.60
2013,06,22,15,36,320.90
2013,06,22,15,37,318.60
2013,06,22,15,38,318.00
2013,06,22,15,39,318.00
2013,06,22,15,40,318.00
2013,06,22,15,41,318.00
2013,06,22,15,42,318.00
2013,06,22,15,43,316.30
2013,06,22,15,44,312.20
2013,06,22,15,45,308.50
2013,06,22,15,46,304.10
2013,06,22,15,47,300.20
2013,06,22,15,48,296.40
2013,06,22,15,49,295.00
2013,06,22,15,50,294.40
2013,06,22,15,51,292.60
2013,06,22,15,52,290.30
2013,06,22,15,53,290.00
2013,06,22,15,54,289.60
2013,06,22,15,55,287.70
2013,06,22,15,56,285.20
2013,06,22,15,57,283.00
2013,06,22,15,58,283.00
2013,06,22,15,59,283.00
2013,06,22,16,00,283.00
2013,06,22,16,01,283.00
2013,06,22,16,02,283.00
2013,06,22,16,03,283.00
2013,06,22,16,04,283.00
2013,06,22,16,05,283.00
2013,06,22,16,06,283.00
2013,06,22,16,07,283.00
2013,06,22,16,08,283.00
2013,06,22,16,09,283.00
2013,06,22,16,10,283.90
2013,06,22,16,11,285.00
2013,06,22,16,12,286.40
2013,06,22,16,13,287.00
2013,06,22,16,14,290.10
2013,06,22,16,15,294.20
2013,06,22,16,16,296.30
2013,06,22,16,17,299.90
2013,06,22,16,18,301.00
2013,06,22,16,19,299.60
2013,06,22,16,20,297.30
2013,06,22,16,21,294.00
2013,06,22,16,22,292.00
2013,06,22,16,23,292.00
2013,06,22,16,24,292.00
2013,06,22,16,25,293.10
2013,06,22,16,26,294.70
2013,06,22,16,27,295.00
2013,06,22,16,28,295.00
2013,06,22,16,29,294.80
2013,06,22,16,30,293.40
2013,06,22,16,31,291.10
2013,06,22,16,32,288.90
2013,06,22,16,33,288.00
2013,06,22,16,34,287.20
2013,06,22,16,35,288.10
2013,06,22,16,36,290.40
2013,06,22,16,37,292.00
2013,06,22,16,38,292.90
2013,06,22,16,39,294.60
2013,06,22,16,40,295.00
2013,06,22,16,41,295.00
2013,06,22,16,42,297.20
2013,06,22,16,43,301.20
2013,06,22,16,44,302.60
2013,06,22,16,45,304.90
2013,06,22,16,46,306.00
2013,06,22,16,47,306.00
2013,06,22,16,48,306.00
2013,06,22,16,49,308.00
2013,06,22,16,50,309.40
2013,06,22,16,51,312.60
2013,06,22,16,52,318.70
2013,06,22,16,53,324.90
2013,06,22,16,54,329.10
2013,06,22,16,55,331.70
2013,06,22,16,56,331.60
2013,06,22,16,57,326.00
2013,06,22,16,58,319.80
2013,06,22,16,59,312.30
2013,06,22,17,00,305.00
2013,06,22,17,01,297.20
2013,06,22,17,02,290.90
2013,06,22,17,03,285.00
2013,06,22,17,04,282.20
2013,06,22,17,05,278.70
2013,06,22,17,06,278.00
2013,06,22,17,07,278.00
2013,06,22,17,08,278.00